Regional Weather Roundup
Issued by NWS Upton, NY

Current Version | Previous Version | Text Only | Print | Product List | Glossary On
Versions: 1 2 3 4 5 6 7 8 9 10 11 12 13 14 15 16 17 18 19 20 21 22 23 24 25 26 27 28 29 30 31 32 33 34 35 36 37 38 39 40 41 42 43 44 45 46 47 48 49 50
000
ASUS41 KOKX 091504
RWROKX

REGIONAL WEATHER ROUNDUP
NATIONAL WEATHER SERVICE NEW YORK NY
1000 AM EST TUE FEB 09 2016

NOTE: "FAIR" INDICATES FEW OR NO CLOUDS BELOW 12,000 FEET WITH NO
SIGNIFICANT WEATHER AND/OR OBSTRUCTIONS TO VISIBILITY.

NYZ071-072-176-178-NJZ106-104-091600-
NEW YORK CITY METRO AREA


CITY           SKY/WX    TMP DP  RH WIND       PRES   REMARKS
CENTRAL PARK   CLOUDY    29  22  75 NE8       29.67F WCI  21
LAGUARDIA APRT CLOUDY    29  22  75 NE14      29.65F WCI  18
KENNEDY INTL   PTSUNNY   31  24  75 N13       29.66F WCI  21
NEWARK/LIBERTY FLURRIES  29  24  82 NE14      29.66F WCI  18
BRNX BOT. GARD   N/A     30  23  74 E3        29.66F
TETERBORO      FLURRIES  29  20  69 NE7       29.65F WCI  22
$$

NYZ177-179-078>081-091600-
LONG ISLAND NEW YORK

CITY           SKY/WX    TMP DP  RH WIND       PRES   REMARKS
FARMINGDALE    CLOUDY    30  24  78 NE8       29.64F WCI  22
ISLIP          MOSUNNY   30  23  75 NE13      29.63F WCI  20
SHIRLEY        CLOUDY    29  23  78 N8        29.65F WCI  21
RIVERHEAD        N/A     32  23  69 E3        29.64F
WESTHAMPTON    CLOUDY    28  24  85 N10       29.66F WCI  19
EAST HAMPTON   CLOUDY    27  25  93 VRB5      29.66F WCI  21
MONTAUK POINT    N/A     27  24  89 NE7       29.67S WCI  19
$$

NYZ052-065-067-091600-
HUDSON VALLEY

CITY           SKY/WX    TMP DP  RH WIND       PRES   REMARKS
WHITE PLAINS   MOSUNNY   26  19  74 NE3       29.63F
NEWBURGH       PTSUNNY   21  21 100 E6        29.66  WCI  14
MONTGOMERY     CLOUDY    25  20  81 N8        29.66F WCI  16
POUGHKEEPSIE   CLOUDY    25  17  72 N5        29.69F HAZE    WCI  19
ALBANY         LGT SNOW  24  19  81 S8        29.69S WCI  15
$$

NJZ001-105-106-008-010-013-015-019>022-104-091600-
NEW JERSEY

CITY           SKY/WX    TMP DP  RH WIND       PRES   REMARKS
NEWARK/LIBERTY FLURRIES  29  24  82 NE14      29.66F WCI  18
TETERBORO      FLURRIES  29  20  69 NE7       29.65F WCI  22
CALDWELL       CLOUDY    28  21  75 NE8       29.66F WCI  20
MORRISTOWN     CLOUDY    28  25  86 NE13      29.66F WCI  18
SOMERVILLE     CLOUDY    29  23  78 NE8       29.63F WCI  21
SUSSEX         CLOUDY    25  20  81 NE9       29.63F WCI  15
ANDOVER          N/A     26  21  81 NE5       29.63F WCI  20
TRENTON        LGT SNOW  30  26  85 NE9       29.62F FOG     WCI  22
MILLVILLE      CLOUDY    36  34  92 NE10      29.59F WCI  28
ATLANTIC CITY  CLOUDY    38  29  70 NE10      29.58F WCI  31
WRIGHTSTOWN    CLOUDY    32  32 100 NE12      29.58F WCI  23
TOMS RIVER     CLOUDY    34  28  80 NE14      29.61F WCI  24
BELMAR         CLOUDY    32  23  69 NE8       29.61F WCI  25
$$

PAZ047>061-062-071-091600-
EASTERN PENNSYLVANIA

CITY           SKY/WX    TMP DP  RH WIND       PRES   REMARKS
PHILADELPHIA   LGT SNOW  34  28  79 NE9G18    29.62F WCI  27
ALLENTOWN      LGT SNOW  30  24  78 NE7       29.63S WCI  23
SCRANTON       LGT SNOW  30  24  78 E5        29.58S WCI  25
$$

CTZ002-004>006-009-010-012-RIZ004-006-007-MAZ004-011-015-091600-
SOUTHERN NEW ENGLAND
 IN CT

CITY           SKY/WX    TMP DP  RH WIND       PRES   REMARKS
BRADLEY INTL   FLURRIES  22  15  75 N9        29.70F WCI  12
HARTFORD       FLURRIES  23  16  74 N6        29.71F WCI  16
DANBURY        CLOUDY    23  15  71 NE7       29.66F WCI  15
WTRBRY/OXFORD  CLOUDY    19   9  63 NE7       29.66F WCI  10
BRIDGEPORT     PTSUNNY   26  19  74 NE8       29.68F WCI  18
MERIDEN        CLOUDY    24  17  74 VRB5      29.69F WCI  18
NEW HAVEN      PTSUNNY   24  19  81 N9        29.68F WCI  14
CHESTER        PTSUNNY   27  19  74 N6        29.66F WCI  20
GROTON         CLOUDY    26  20  77 N9        29.67F WCI  17
WILLIMANTIC    CLOUDY    25  17  72 N5        29.69F WCI  19

 IN RI

CITY           SKY/WX    TMP DP  RH WIND       PRES   REMARKS
PROVIDENCE     CLOUDY    23  17  78 N12       29.70S WCI  12
BLOCK ISLAND   CLOUDY    27  25  93 NE9       29.65F WCI  17
WESTERLY       SUNNY     26  19  74 N8        29.67F WCI  18

 IN MA

CITY           SKY/WX    TMP DP  RH WIND       PRES   REMARKS
BOSTON         CLOUDY    23  16  74 NW6       29.71F WCI  16
WORCESTER      CLOUDY    19  13  77 NE7       29.64F WCI  10
WESTFIELD      LGT SNOW  21  16  81 N8        29.70F WCI  11
PROVINCETOWN   CLOUDY    33  25  72 N5        29.68F WCI  29
NANTUCKET      CLOUDY    34  29  82 NE9       29.64F HAZE    WCI  27
$$

ANZ330-335-338-340-345-350-353-355-091600-
COASTAL MARINE OBSERVATIONS


STATION/POSITION TIME  SKY/WX   TEMP    WIND        PRES    VSBY  WAVE
                                AIR SEA DIR/SP/G                  HT/PER
                 (UTC)          (F)     (DEG/KT/KT) (MB)    (MI)  (FT/S)
NY HARB ENTRANCE 1350            31 43   40/ 17/ 21 1003.3          7/14
4S FIRE IS       NOT AVBL
20S FIRE ISLAND  1350            34 44   50/ 16/ 19 1003.2          6/11
GREAT SOUTH BAY  NOT AVBL
23SW MTP         1450            33 46   30/ 16/ 17 1002.8          8/13
HUDSON CANYON    1350            38 49              1001.8         10/14
KINGS POINT      1400            28 38   80/  7/ 10 1004.3
EXECUTION ROCKS  NOT AVBL
CENTRAL LI SOUND NOT AVBL
EASTERN LI SOUND 1400            26 42   20/ 10/ 14   N/A
ROBBINS REEF     1400            29      60/ 11/ 14 1003.7
$$


>>>>>>>>>>>>>>>>>>>>>>>>>>>> KEY <<<<<<<<<<<<<<<<<<<<<<<<<<<
>                                                          <
>     SKY/WX - SKY CONDITION/PRESENT WEATHER               <
>     TMP    - TEMPERATURE IN FAHRENHEIT                   <
>     DP     - DEWPOINT IN FAHRENHEIT                      <
>     RH     - RELATIVE HUMIDITY IN PERCENT                <
>     WIND   - DIRECTION AND SPEED IN MPH                  <
>     PRES   - MEAN SEA LEVEL PRESSURE IN INCHES OF HG     <
>     WCI    - WIND CHILL INDEX                            <
>     VSB    - VISIBILITY IN MILES                         <
>     HX     - HEAT INDEX                                  <
>     TC     - TEMPERATURE IN CELSIUS                      <
>     VRB    - VARIABLE WIND DIRECTION                     <
>                                                          <
>>>>>>>>>>>>>>>>>>>>>>>>>>>> KEY <<<<<<<<<<<<<<<<<<<<<<<<<<<





USA.gov is the U.S. government's official web portal to all federal, state and local government web resources and services.